EXPRESS-AMU1

Last updated on Wed Sep 09 2026 00:03:01 GMT+0000 (Coordinated Universal Time)

1 41191U 15082A 26250.59686490 .00000136 00000+0 00000+0 0 9992 2 41191 0.0135 108.5083 0002345 76.8743 52.2490 1.00272911 39097
UTC large
Height (km)
Speed (km/s)
/
Latitude / Longitude
Inclination (degrees)
Orbital Period (minutes)
Azimuth
Elevation
Range (km)
Doppler Factor

Next 0 passes for location: London (51.5072 / 0.1276)

No passes found over London.
EXPRESS-AMU1